This is the latest recevied weather packets stored in our database for station/object NQ9F. If no packets are shown the sender has not sent any weather packets the latest 10 day(s).
| Time | Temp. | Humidity | Pressure | Rain* | Wind** | Luminosity | Snow |
|---|---|---|---|---|---|---|---|
| 1777909621 | 21.11° C | 69% | 1011.8 hPa | 0 mm | - | 708 W/m² | - |
| 1777909319 | 21.11° C | 70% | 1011.6 hPa | 0 mm | - | 598 W/m² | - |
| 1777909016 | 21.11° C | 70% | 1011.8 hPa | 0 mm | - | 630 W/m² | - |
| 1777908714 | 20.56° C | 71% | 1011.9 hPa | 0 mm | - | 459 W/m² | - |
| 1777908411 | 20.56° C | 70% | 1011.9 hPa | 0 mm | - | 567 W/m² | - |
| 1777908107 | 20.56° C | 71% | 1012.2 hPa | 0 mm | - | 618 W/m² | - |
| 1777907803 | 20° C | 72% | 1011.9 hPa | 0 mm | - | 412 W/m² | - |
| 1777907498 | 20° C | 72% | 1012.1 hPa | 0 mm | - | 447 W/m² | - |
| 1777907196 | 20° C | 72% | 1011.8 hPa | 0 mm | - | 623 W/m² | - |
| 1777906892 | 20° C | 73% | 1012.1 hPa | 0 mm | - | 532 W/m² | - |
| 1777906590 | 19.44° C | 73% | 1012.2 hPa | 0 mm | - | 479 W/m² | - |
| 1777906285 | 19.44° C | 74% | 1012.3 hPa | 0 mm | - | 468 W/m² | - |
| 1777905982 | 19.44° C | 74% | 1012.4 hPa | 0 mm | - | 452 W/m² | - |
| 1777905679 | 18.89° C | 74% | 1012.4 hPa | 0 mm | - | 400 W/m² | - |
| 1777905375 | 18.89° C | 74% | 1012.4 hPa | 0 mm | - | 311 W/m² | - |
| 1777905074 | 18.89° C | 74% | 1012.3 hPa | 0 mm | - | 342 W/m² | - |
| 1777904771 | 18.89° C | 73% | 1012.4 hPa | 0 mm | - | 385 W/m² | - |
| 1777904468 | 18.89° C | 74% | 1012.4 hPa | 0 mm | - | 320 W/m² | - |
| 1777904164 | 18.89° C | 74% | 1012.4 hPa | 0 mm | - | 322 W/m² | - |
| 1777903861 | 18.89° C | 74% | 1012.3 hPa | 0 mm | - | 319 W/m² | - |
| 1777903558 | 18.89° C | 75% | 1012.3 hPa | 0 mm | - | 332 W/m² | - |
| 1777903254 | 18.33° C | 75% | 1012.3 hPa | 0 mm | - | 202 W/m² | - |
| 1777902950 | 18.33° C | 76% | 1012.2 hPa | 0 mm | - | 229 W/m² | - |
| 1777902647 | 18.33° C | 76% | 1012.3 hPa | 0 mm | - | 251 W/m² | - |
| 1777902344 | 17.78° C | 77% | 1012.5 hPa | 0 mm | - | 251 W/m² | - |
* Rain latest hour (hover to see other rain measurements)
** Current wind speed in m/s (hover to see current wind gust speed)